| time (UTC) | temp F | wind direction | speed knots | gust knots | rain 1hr in | rain 24hr in | rain mn in | humidity % | barometer mb |
| 20260506073026 | 65 | 235 | 7.8 | 20.0 | 0.00 | 0.00 | 0.00 | 78 | 1009.6 |
| 20260506071525 | 65 | 211 | 7.8 | 16.5 | 0.00 | 0.00 | 0.00 | 77 | 1009.7 |
| 20260506061513 | 65 | 216 | 1.7 | 14.8 | 0.00 | 0.00 | 0.00 | 75 | 1010.1 |
| 20260506044506 | 66 | 210 | 0.0 | 4.3 | 0.00 | 0.00 | 0.00 | 71 | 1010.6 |
| 20260506043003 | 66 | 208 | 0.0 | 5.2 | 0.00 | 0.00 | 0.00 | 70 | 1010.7 |
| 20260506041501 | 66 | 212 | 1.7 | 10.4 | 0.00 | 0.00 | 0.00 | 69 | 1010.7 |
| 20260506040100 | 66 | 180 | 1.7 | 9.6 | 0.00 | 0.00 | 0.00 | 69 | 1010.7 |
| 20260506034615 | 66 | 220 | 0.0 | 9.6 | 0.00 | 0.00 | 0.00 | 69 | 1010.7 |
| 20260506033058 | 66 | 217 | 0.0 | 7.8 | 0.00 | 0.00 | 0.00 | 68 | 1010.6 |
| 20260506031607 | 66 | 218 | 0.0 | 7.8 | 0.00 | 0.00 | 0.00 | 68 | 1010.5 |
| 20260506030057 | 66 | 223 | 0.9 | 8.7 | 0.00 | 0.00 | 0.00 | 69 | 1010.6 |
| 20260506024616 | 66 | 214 | 0.9 | 8.7 | 0.00 | 0.00 | 0.00 | 69 | 1010.6 |
| 20260506023057 | 66 | 181 | 0.0 | 3.5 | 0.00 | 0.00 | 0.00 | 67 | 1010.8 |
| 20260506021558 | 67 | 189 | 0.0 | 8.7 | 0.00 | 0.00 | 0.00 | 66 | 1010.8 |
| 20260506020058 | 67 | 206 | 0.9 | 7.8 | 0.00 | 0.00 | 0.00 | 65 | 1010.7 |
| 20260506014555 | 68 | 200 | 0.0 | 7.0 | 0.00 | 0.00 | 0.00 | 64 | 1010.6 |
| 20260506013107 | 68 | 201 | 0.0 | 12.2 | 0.00 | 0.00 | 0.00 | 63 | 1010.3 |
| 20260506011606 | 69 | 204 | 0.0 | 3.5 | 0.00 | 0.00 | 0.00 | 62 | 1010.1 |
| 20260506010056 | 70 | 210 | 0.9 | 5.2 | 0.00 | 0.00 | 0.00 | 60 | 1010.0 |
| 20260506004554 | 70 | 203 | 0.0 | 3.5 | 0.00 | 0.00 | 0.00 | 59 | 1009.9 |
| 20260506003052 | 71 | 210 | 0.0 | 10.4 | 0.00 | 0.00 | 0.00 | 57 | 1009.7 |
| 20260506001551 | 72 | 203 | 0.0 | 2.6 | 0.00 | 0.00 | 0.00 | 55 | 1009.6 |
| 20260506000052 | 72 | 209 | 0.0 | 12.2 | 0.00 | 0.00 | 0.00 | 54 | 1009.4 |
| 20260505234551 | 73 | 209 | 1.7 | 11.3 | 0.00 | 0.00 | 0.00 | 52 | 1009.2 |
| 20260505233050 | 74 | 212 | 6.1 | 15.6 | 0.00 | 0.00 | 0.00 | 50 | 1009.1 |
| 20260505231550 | 75 | 208 | 6.1 | 17.4 | 0.00 | 0.00 | 0.00 | 49 | 1009.3 |
| 20260505230101 | 76 | 208 | 3.5 | 20.9 | 0.00 | 0.00 | 0.00 | 48 | 1009.2 |
| 20260505224549 | 76 | 213 | 6.1 | 24.3 | 0.00 | 0.00 | 0.00 | 47 | 1009.2 |
| 20260505223056 | 77 | 155 | 3.5 | 19.1 | 0.00 | 0.00 | 0.00 | 47 | 1009.2 |
| 20260505221548 | 78 | 220 | 10.4 | 25.2 | 0.00 | 0.00 | 0.00 | 45 | 1009.3 |
| 20260505220047 | 79 | 210 | 11.3 | 24.3 | 0.00 | 0.00 | 0.00 | 45 | 1009.1 |
| 20260505214547 | 78 | 189 | 10.4 | 21.7 | 0.00 | 0.00 | 0.00 | 46 | 1009.2 |
| 20260505213055 | 79 | 199 | 10.4 | 26.1 | 0.00 | 0.00 | 0.00 | 45 | 1009.1 |
| 20260505211545 | 80 | 196 | 12.2 | 22.6 | 0.00 | 0.00 | 0.00 | 45 | 1009.2 |
| 20260505210045 | 79 | 199 | 9.6 | 23.5 | 0.00 | 0.00 | 0.00 | 47 | 1009.1 |
| 20260505204545 | 79 | 202 | 9.6 | 27.8 | 0.00 | 0.00 | 0.00 | 45 | 1009.1 |
| 20260505203050 | 80 | 235 | 14.8 | 25.2 | 0.00 | 0.00 | 0.00 | 46 | 1009.3 |
| 20260505201546 | 79 | 201 | 7.8 | 24.3 | 0.00 | 0.00 | 0.00 | 47 | 1009.3 |
| 20260505200041 | 80 | 212 | 12.2 | 26.1 | 0.00 | 0.00 | 0.00 | 46 | 1009.4 |
| 20260505194543 | 80 | 190 | 7.0 | 21.7 | 0.00 | 0.00 | 0.00 | 46 | 1009.4 |
| 20260505193038 | 80 | 238 | 5.2 | 17.4 | 0.00 | 0.00 | 0.00 | 46 | 1009.6 |
| 20260505191537 | 80 | 279 | 9.6 | 21.7 | 0.00 | 0.00 | 0.00 | 47 | 1009.8 |
| 20260505190034 | 80 | 218 | 2.6 | 21.7 | 0.00 | 0.00 | 0.00 | 48 | 1010.0 |
| 20260505184533 | 80 | 218 | 10.4 | 28.7 | 0.00 | 0.00 | 0.00 | 46 | 1010.1 |
| 20260505183032 | 80 | 185 | 7.8 | 22.6 | 0.00 | 0.00 | 0.00 | 45 | 1010.3 |
| 20260505181530 | 80 | 199 | 10.4 | 21.7 | 0.00 | 0.00 | 0.00 | 47 | 1010.4 |
| 20260505180028 | 80 | 193 | 1.7 | 11.3 | 0.00 | 0.00 | 0.00 | 48 | 1010.6 |
| 20260505174525 | 80 | 165 | 3.5 | 15.6 | 0.00 | 0.00 | 0.00 | 52 | 1010.8 |
| 20260505173037 | 79 | 143 | 4.3 | 20.9 | 0.00 | 0.00 | 0.00 | 49 | 1010.9 |
| 20260505171520 | 78 | 172 | 2.6 | 14.8 | 0.00 | 0.00 | 0.00 | 54 | 1011.0 |
| 20260505170023 | 78 | 201 | 2.6 | 13.9 | 0.00 | 0.00 | 0.00 | 55 | 1011.3 |
| 20260505164535 | 77 | 189 | 0.9 | 16.5 | 0.00 | 0.00 | 0.00 | 53 | 1011.4 |
| 20260505163014 | 76 | 191 | 6.1 | 18.2 | 0.00 | 0.00 | 0.00 | 53 | 1011.5 |
| 20260505161511 | 76 | 229 | 4.3 | 13.9 | 0.00 | 0.00 | 0.00 | 55 | 1011.5 |
| 20260505153011 | 75 | 185 | 0.0 | 7.0 | 0.00 | 0.00 | 0.00 | 59 | 1011.7 |
| 20260505151507 | 75 | 199 | 0.0 | 17.4 | 0.00 | 0.00 | 0.00 | 59 | 1011.8 |
| 20260505140104 | 71 | 224 | 3.5 | 12.2 | 0.00 | 0.00 | 0.00 | 58 | 1011.9 |
| 20260505124538 | 65 | 216 | 7.0 | 15.6 | 0.00 | 0.00 | 0.00 | 65 | 1012.4 |
| 20260505123033 | 63 | 212 | 4.3 | 10.4 | 0.00 | 0.00 | 0.00 | 68 | 1012.4 |
| 20260505121535 | 63 | 223 | 5.2 | 13.9 | 0.00 | 0.00 | 0.00 | 71 | 1012.2 |
| 20260505120025 | 62 | 206 | 5.2 | 12.2 | 0.00 | 0.00 | 0.00 | 72 | 1012.1 |
| 20260505114532 | 61 | 241 | 8.7 | 16.5 | 0.00 | 0.00 | 0.00 | 74 | 1012.1 |
| 20260505113018 | 60 | 201 | 2.6 | 13.0 | 0.00 | 0.00 | 0.00 | 76 | 1011.9 |
| 20260505111517 | 59 | 216 | 4.3 | 14.8 | 0.00 | 0.00 | 0.00 | 77 | 1011.9 |
| 20260505101511 | 57 | 215 | 0.0 | 9.6 | 0.00 | 0.00 | 0.00 | 77 | 1011.3 |
| 20260505100012 | 58 | 212 | 0.0 | 6.1 | 0.00 | 0.00 | 0.00 | 76 | 1011.4 |
| 20260505094613 | 58 | 224 | 0.0 | 9.6 | 0.00 | 0.00 | 0.00 | 75 | 1011.2 |
| 20260505093008 | 58 | 214 | 0.0 | 11.3 | 0.00 | 0.00 | 0.00 | 74 | 1011.0 |
| 20260505091507 | 58 | 218 | 3.5 | 9.6 | 0.00 | 0.00 | 0.00 | 74 | 1010.9 |
| 20260505090006 | 58 | 211 | 0.9 | 10.4 | 0.00 | 0.00 | 0.00 | 75 | 1010.9 |
| 20260505084506 | 58 | 206 | 0.9 | 9.6 | 0.00 | 0.00 | 0.00 | 76 | 1011.0 |
| 20260505083006 | 59 | 209 | 1.7 | 9.6 | 0.00 | 0.00 | 0.00 | 76 | 1010.9 |
| 20260505081505 | 59 | 187 | 0.0 | 9.6 | 0.00 | 0.00 | 0.00 | 75 | 1011.1 |